AAL5090 KCLT-KBHM

Flight info

Callsign AAL5090
Flight time 1h 6m
Altitude 32000
Route ESTRR5 IPTAY CHOPZ THRSR KIOSK
Aircraft CRJ9/M-SDFGIRWY/S

Departure

Time 2026-04-18 10:50
Airport Charlotte Douglas International Airport (KCLT)

Arrival

Time 2026-04-18 11:57
Airport Birmingham-Shuttlesworth International Airport (KBHM)
Time Latitude Longitude Altitude Speed Heading
2026-04-18 10:40 35.21826 -80.94160 723 ft 0 kts 252°
2026-04-18 10:42 35.21829 -80.94154 723 ft 2 kts 239°
2026-04-18 10:42 35.21837 -80.94140 723 ft 2 kts 223°
2026-04-18 10:43 35.21850 -80.94131 723 ft 2 kts 200°
2026-04-18 10:43 35.21864 -80.94128 724 ft 2 kts 179°
2026-04-18 10:43 35.21878 -80.94132 723 ft 2 kts 158°
2026-04-18 10:43 35.21883 -80.94134 723 ft 0 kts 154°
2026-04-18 10:45 35.21880 -80.94132 723 ft 2 kts 154°
2026-04-18 10:45 35.21843 -80.94110 724 ft 8 kts 154°
2026-04-18 10:46 35.21779 -80.94063 724 ft 13 kts 143°
2026-04-18 10:46 35.21696 -80.93978 724 ft 18 kts 137°
2026-04-18 10:46 35.21590 -80.93862 724 ft 22 kts 138°
2026-04-18 10:46 35.21497 -80.93762 726 ft 13 kts 138°
2026-04-18 10:47 35.21414 -80.93677 727 ft 17 kts 149°
2026-04-18 10:47 35.21278 -80.93645 725 ft 22 kts 176°
2026-04-18 10:47 35.21100 -80.93631 722 ft 28 kts 176°
2026-04-18 10:47 35.20884 -80.93614 717 ft 33 kts 176°
2026-04-18 10:48 35.20699 -80.93599 715 ft 20 kts 176°
2026-04-18 10:48 35.20549 -80.93584 714 ft 21 kts 174°
2026-04-18 10:48 35.20383 -80.93569 711 ft 26 kts 176°
2026-04-18 10:48 35.20243 -80.93545 708 ft 11 kts 148°
2026-04-18 10:49 35.20218 -80.93461 707 ft 10 kts 73°
2026-04-18 10:49 35.20252 -80.93429 707 ft 1 kts
2026-04-18 10:49 35.20324 -80.93431 707 ft 27 kts 355°
2026-04-18 10:49 35.20746 -80.93470 713 ft 94 kts 356°
2026-04-18 10:50 35.21593 -80.93539 731 ft 146 kts 356°
2026-04-18 10:50 35.22694 -80.93636 925 ft 165 kts 355°
2026-04-18 10:50 35.23853 -80.93762 1434 ft 168 kts 354°
2026-04-18 10:50 35.25078 -80.93921 1799 ft 182 kts 351°
2026-04-18 10:51 35.26315 -80.94385 2184 ft 193 kts 332°
2026-04-18 10:51 35.27428 -80.95359 2604 ft 199 kts 311°
2026-04-18 10:51 35.28134 -80.96770 3174 ft 196 kts 287°
2026-04-18 10:51 35.28402 -80.98427 3560 ft 207 kts 269°
2026-04-18 10:52 35.28004 -81.00075 3999 ft 209 kts 228°
2026-04-18 10:52 35.26846 -81.01134 4572 ft 210 kts 212°
2026-04-18 10:52 35.25612 -81.02115 5134 ft 216 kts 214°
2026-04-18 10:52 35.24319 -81.03149 5714 ft 225 kts 214°
2026-04-18 10:53 35.23009 -81.04202 6283 ft 232 kts 216°
2026-04-18 10:53 35.21809 -81.05547 6838 ft 238 kts 232°
2026-04-18 10:53 35.20833 -81.07218 7409 ft 244 kts 238°
2026-04-18 10:53 35.19962 -81.09021 7965 ft 251 kts 242°
2026-04-18 10:54 35.19130 -81.10912 8524 ft 256 kts 243°
2026-04-18 10:54 35.18312 -81.12849 9066 ft 262 kts 244°
2026-04-18 10:54 35.17480 -81.14851 9608 ft 267 kts 244°
2026-04-18 10:54 35.16641 -81.16886 10131 ft 271 kts 244°
2026-04-18 10:55 35.15785 -81.18959 10658 ft 275 kts 245°
2026-04-18 10:55 35.14927 -81.21041 11186 ft 279 kts 245°
2026-04-18 10:55 35.14053 -81.23168 11708 ft 282 kts 246°
2026-04-18 10:55 35.13173 -81.25303 12230 ft 285 kts 245°
2026-04-18 10:56 35.12276 -81.27474 12756 ft 287 kts 246°
2026-04-18 10:56 35.11379 -81.29651 13244 ft 289 kts 246°
2026-04-18 10:56 35.10484 -81.31818 13690 ft 290 kts 246°
2026-04-18 10:56 35.09576 -81.34015 14184 ft 292 kts 246°
2026-04-18 10:57 35.08659 -81.36236 14696 ft 293 kts 246°
2026-04-18 10:57 35.07740 -81.38448 15206 ft 293 kts 246°
2026-04-18 10:57 35.06831 -81.40651 15717 ft 293 kts 246°
2026-04-18 10:57 35.05915 -81.42860 16226 ft 293 kts 246°
2026-04-18 10:58 35.04991 -81.45089 16730 ft 293 kts 246°
2026-04-18 10:58 35.04110 -81.47308 17224 ft 291 kts 253°
2026-04-18 10:58 35.03521 -81.49606 17721 ft 289 kts 249°
2026-04-18 10:58 35.02684 -81.51826 18231 ft 287 kts 250°
2026-04-18 10:59 35.01899 -81.54072 18701 ft 286 kts 250°
2026-04-18 10:59 35.01130 -81.56299 19161 ft 286 kts 251°
2026-04-18 10:59 35.00372 -81.58518 19607 ft 286 kts 251°
2026-04-18 10:59 34.99389 -81.60654 20044 ft 288 kts 241°
2026-04-18 11:00 34.98311 -81.62662 20499 ft 286 kts 242°
2026-04-18 11:00 34.97226 -81.64700 20946 ft 285 kts 242°
2026-04-18 11:00 34.96157 -81.66706 21399 ft 283 kts 242°
2026-04-18 11:00 34.95087 -81.68720 21846 ft 281 kts 242°
2026-04-18 11:01 34.94038 -81.70696 22284 ft 279 kts 242°
2026-04-18 11:01 34.92990 -81.72656 22716 ft 276 kts 243°
2026-04-18 11:01 34.91948 -81.74617 23172 ft 274 kts 243°
2026-04-18 11:02 34.89881 -81.78501 24023 ft 276 kts 243°
2026-04-18 11:02 34.88842 -81.80448 24391 ft 278 kts 243°
2026-04-18 11:02 34.87786 -81.82429 24771 ft 280 kts 243°
2026-04-18 11:02 34.86719 -81.84431 25119 ft 283 kts 244°
2026-04-18 11:03 34.85650 -81.86439 25456 ft 286 kts 243°
2026-04-18 11:03 34.84559 -81.88475 25829 ft 288 kts 243°
2026-04-18 11:03 34.83476 -81.90505 26213 ft 290 kts 244°
2026-04-18 11:03 34.82370 -81.92566 26591 ft 291 kts 243°
2026-04-18 11:04 34.81262 -81.94638 26974 ft 293 kts 244°
2026-04-18 11:04 34.80163 -81.96690 27353 ft 294 kts 243°
2026-04-18 11:04 34.79042 -81.98776 27727 ft 295 kts 244°
2026-04-18 11:04 34.77912 -82.00885 28113 ft 297 kts 244°
2026-04-18 11:05 34.76797 -82.02966 28481 ft 298 kts 244°
2026-04-18 11:05 34.75658 -82.05084 28853 ft 299 kts 245°
2026-04-18 11:05 34.74532 -82.07179 29227 ft 299 kts 244°
2026-04-18 11:05 34.73394 -82.09298 29599 ft 300 kts 245°
2026-04-18 11:06 34.72254 -82.11422 29985 ft 300 kts 244°
2026-04-18 11:06 34.71106 -82.13550 30356 ft 301 kts 245°
2026-04-18 11:06 34.69963 -82.15665 30736 ft 300 kts 245°
2026-04-18 11:06 34.68823 -82.17783 31110 ft 300 kts 245°
2026-04-18 11:07 34.67685 -82.19897 31474 ft 300 kts 245°
2026-04-18 11:07 34.66548 -82.22003 31837 ft 299 kts 245°
2026-04-18 11:07 34.65404 -82.24125 32141 ft 301 kts 245°
2026-04-18 11:07 34.64244 -82.26282 32155 ft 312 kts 246°
2026-04-18 11:08 34.63036 -82.28526 32175 ft 323 kts 245°
2026-04-18 11:08 34.61799 -82.30815 32174 ft 334 kts 245°
2026-04-18 11:08 34.59167 -82.35683 32191 ft 355 kts 244°
2026-04-18 11:09 34.56379 -82.40824 32198 ft 376 kts 244°
2026-04-18 11:09 34.53448 -82.46218 32178 ft 393 kts 244°
2026-04-18 11:10 34.50393 -82.51831 32169 ft 403 kts 243°
2026-04-18 11:10 34.47286 -82.57532 32138 ft 409 kts 244°
2026-04-18 11:11 34.44145 -82.63286 32144 ft 411 kts 243°
2026-04-18 11:11 34.40997 -82.69041 32154 ft 414 kts 243°
2026-04-18 11:12 34.37827 -82.74844 32154 ft 415 kts 243°
2026-04-18 11:12 34.34629 -82.80671 32153 ft 416 kts 243°
2026-04-18 11:13 34.31434 -82.86489 32148 ft 415 kts 243°
2026-04-18 11:13 34.28259 -82.92265 32148 ft 415 kts 243°
2026-04-18 11:14 34.25068 -82.98058 32149 ft 414 kts 242°
2026-04-18 11:14 34.21865 -83.03857 32153 ft 414 kts 243°
2026-04-18 11:15 34.18691 -83.09604 32143 ft 414 kts 243°
2026-04-18 11:15 34.15500 -83.15374 32136 ft 414 kts 243°
2026-04-18 11:16 34.12304 -83.21137 32139 ft 414 kts 242°
2026-04-18 11:16 34.09095 -83.26914 32139 ft 414 kts 243°
2026-04-18 11:17 34.05914 -83.32636 32143 ft 413 kts 243°
2026-04-18 11:17 34.02714 -83.38378 32140 ft 412 kts 243°
2026-04-18 11:18 33.99523 -83.44099 32137 ft 413 kts 243°
2026-04-18 11:18 33.96317 -83.49838 32145 ft 412 kts 243°
2026-04-18 11:19 33.93126 -83.55538 32142 ft 411 kts 242°
2026-04-18 11:19 33.89942 -83.61220 32147 ft 411 kts 243°
2026-04-18 11:20 33.86755 -83.66894 32148 ft 410 kts 242°
2026-04-18 11:20 33.85347 -83.69848 32103 ft 401 kts 253°
2026-04-18 11:20 33.84410 -83.72993 32207 ft 398 kts 255°
2026-04-18 11:21 33.82529 -83.79240 32157 ft 401 kts 255°
2026-04-18 11:21 33.80634 -83.85519 32145 ft 402 kts 255°
2026-04-18 11:22 33.78728 -83.91818 32144 ft 401 kts 255°
2026-04-18 11:22 33.76824 -83.98082 32146 ft 401 kts 255°
2026-04-18 11:23 33.74910 -84.04384 32152 ft 401 kts 255°
2026-04-18 11:23 33.73008 -84.10626 32152 ft 400 kts 255°
2026-04-18 11:24 33.71090 -84.16892 32147 ft 400 kts 255°
2026-04-18 11:24 33.69173 -84.23166 32152 ft 400 kts 255°
2026-04-18 11:25 33.67266 -84.29389 32147 ft 399 kts 255°
2026-04-18 11:25 33.65339 -84.35641 32147 ft 400 kts 254°
2026-04-18 11:26 33.63415 -84.41901 32149 ft 399 kts 255°
2026-04-18 11:26 33.62884 -84.45091 32094 ft 390 kts 270°
2026-04-18 11:26 33.62830 -84.48344 32229 ft 388 kts 270°
2026-04-18 11:27 33.62758 -84.51627 32112 ft 391 kts 270°
2026-04-18 11:27 33.62681 -84.54826 32166 ft 389 kts 270°
2026-04-18 11:27 33.62539 -84.61303 32153 ft 390 kts 270°
2026-04-18 11:28 33.62394 -84.67810 32161 ft 390 kts 270°
2026-04-18 11:28 33.62245 -84.74289 32163 ft 390 kts 270°
2026-04-18 11:29 33.62091 -84.80783 32164 ft 390 kts 270°
2026-04-18 11:29 33.61937 -84.87257 32161 ft 390 kts 270°
2026-04-18 11:30 33.61776 -84.93761 32169 ft 390 kts 270°
2026-04-18 11:30 33.61615 -85.00237 32166 ft 390 kts 270°
2026-04-18 11:31 33.61447 -85.06672 32160 ft 389 kts 270°
2026-04-18 11:31 33.61279 -85.13145 32168 ft 389 kts 270°
2026-04-18 11:32 33.61197 -85.16390 32023 ft 392 kts 269°
2026-04-18 11:32 33.61108 -85.19662 31765 ft 395 kts 269°
2026-04-18 11:32 33.61016 -85.22984 31514 ft 397 kts 269°
2026-04-18 11:32 33.60929 -85.26289 31258 ft 399 kts 269°
2026-04-18 11:33 33.60836 -85.29615 31019 ft 401 kts 269°
2026-04-18 11:33 33.60743 -85.32937 30779 ft 402 kts 269°
2026-04-18 11:33 33.60648 -85.36266 30539 ft 404 kts 269°
2026-04-18 11:33 33.60553 -85.39637 30221 ft 407 kts 269°
2026-04-18 11:34 33.60455 -85.43019 29865 ft 410 kts 269°
2026-04-18 11:34 33.60357 -85.46439 29513 ft 413 kts 268°
2026-04-18 11:34 33.60257 -85.49895 29160 ft 415 kts 268°
2026-04-18 11:34 33.60154 -85.53323 28808 ft 417 kts 268°
2026-04-18 11:35 33.60051 -85.56843 28447 ft 419 kts 268°
2026-04-18 11:35 33.59946 -85.60294 28101 ft 421 kts 268°
2026-04-18 11:35 33.59839 -85.63794 27748 ft 422 kts 268°
2026-04-18 11:35 33.59730 -85.67334 27406 ft 417 kts 268°
2026-04-18 11:36 33.59627 -85.70679 27120 ft 395 kts 268°
2026-04-18 11:36 33.59524 -85.73899 26747 ft 382 kts 268°
2026-04-18 11:36 33.59427 -85.77012 26332 ft 371 kts 268°
2026-04-18 11:36 33.59331 -85.80074 25924 ft 360 kts 268°
2026-04-18 11:37 33.59236 -85.83025 25517 ft 350 kts 268°
2026-04-18 11:37 33.59146 -85.85861 25119 ft 341 kts 268°
2026-04-18 11:37 33.59053 -85.88670 24710 ft 332 kts 268°
2026-04-18 11:37 33.58966 -85.91383 24290 ft 324 kts 267°
2026-04-18 11:38 33.58879 -85.94050 23875 ft 317 kts 267°
2026-04-18 11:38 33.58794 -85.96648 23471 ft 311 kts 267°
2026-04-18 11:38 33.58709 -85.99231 23065 ft 305 kts 267°
2026-04-18 11:38 33.58625 -86.01724 22673 ft 300 kts 267°
2026-04-18 11:39 33.58540 -86.04195 22289 ft 296 kts 267°
2026-04-18 11:39 33.58456 -86.06647 21901 ft 291 kts 267°
2026-04-18 11:39 33.58375 -86.09041 21521 ft 288 kts 267°
2026-04-18 11:39 33.58297 -86.11410 21143 ft 284 kts 267°
2026-04-18 11:40 33.58213 -86.13772 20761 ft 281 kts 267°
2026-04-18 11:40 33.58466 -86.16048 20337 ft 282 kts 290°
2026-04-18 11:40 33.59367 -86.18125 20008 ft 280 kts 294°
2026-04-18 11:40 33.60258 -86.20187 19643 ft 278 kts 294°
2026-04-18 11:41 33.61140 -86.22225 19284 ft 276 kts 294°
2026-04-18 11:41 33.62014 -86.24239 18929 ft 274 kts 294°
2026-04-18 11:41 33.62889 -86.26268 18553 ft 273 kts 294°
2026-04-18 11:41 33.63763 -86.28290 18077 ft 276 kts 294°
2026-04-18 11:42 33.64650 -86.30345 17605 ft 278 kts 294°
2026-04-18 11:42 33.65538 -86.32401 17127 ft 280 kts 294°
2026-04-18 11:42 33.66439 -86.34488 16639 ft 282 kts 294°
2026-04-18 11:42 33.67326 -86.36551 16163 ft 283 kts 295°
2026-04-18 11:43 33.68231 -86.38643 15605 ft 277 kts 294°
2026-04-18 11:43 33.69093 -86.40646 15106 ft 270 kts 295°
2026-04-18 11:43 33.69949 -86.42633 14607 ft 265 kts 295°
2026-04-18 11:43 33.70782 -86.44571 14104 ft 261 kts 295°
2026-04-18 11:44 33.71597 -86.46467 13738 ft 251 kts 295°
2026-04-18 11:44 33.72382 -86.48286 13469 ft 241 kts 294°
2026-04-18 11:44 33.73143 -86.50061 12958 ft 243 kts 294°
2026-04-18 11:44 33.73916 -86.51858 12463 ft 243 kts 293°
2026-04-18 11:45 33.74685 -86.53647 11981 ft 243 kts 293°
2026-04-18 11:45 33.75461 -86.55460 11491 ft 242 kts 292°
2026-04-18 11:45 33.76226 -86.57245 11008 ft 243 kts 292°
2026-04-18 11:45 33.76993 -86.59036 10523 ft 242 kts 292°
2026-04-18 11:46 33.77760 -86.60825 10043 ft 242 kts 291°
2026-04-18 11:46 33.78469 -86.62659 9546 ft 237 kts 278°
2026-04-18 11:46 33.78562 -86.64579 9077 ft 231 kts 268°
2026-04-18 11:46 33.79102 -86.66407 8570 ft 245 kts 305°
2026-04-18 11:47 33.80568 -86.67506 8118 ft 258 kts 341°
2026-04-18 11:47 33.82341 -86.67925 7688 ft 260 kts 345°
2026-04-18 11:47 33.84123 -86.68303 7213 ft 262 kts 346°
2026-04-18 11:47 33.85906 -86.68684 6744 ft 263 kts 347°
2026-04-18 11:48 33.87757 -86.68716 6267 ft 265 kts
2026-04-18 11:48 33.89598 -86.68600 5800 ft 265 kts 360°
2026-04-18 11:48 33.91338 -86.69016 5294 ft 254 kts 324°
2026-04-18 11:48 33.92463 -86.70521 4838 ft 235 kts 285°
2026-04-18 11:49 33.92535 -86.72330 4373 ft 214 kts 246°
2026-04-18 11:49 33.91620 -86.73569 4196 ft 192 kts 209°
2026-04-18 11:49 33.90670 -86.74582 4019 ft 177 kts 239°
2026-04-18 11:49 33.90085 -86.75851 3889 ft 179 kts 239°
2026-04-18 11:50 33.89447 -86.77173 3819 ft 181 kts 238°
2026-04-18 11:50 33.88812 -86.78497 3820 ft 184 kts 238°
2026-04-18 11:50 33.88062 -86.79758 3707 ft 192 kts 218°
2026-04-18 11:50 33.86755 -86.80159 3541 ft 206 kts 177°
2026-04-18 11:51 33.85326 -86.79800 3393 ft 212 kts 171°
2026-04-18 11:51 33.83884 -86.79346 3188 ft 218 kts 168°
2026-04-18 11:51 33.82407 -86.78820 2970 ft 223 kts 167°
2026-04-18 11:51 33.80937 -86.78265 2764 ft 218 kts 167°
2026-04-18 11:52 33.79513 -86.77715 2605 ft 208 kts 166°
2026-04-18 11:52 33.78165 -86.77192 2452 ft 199 kts 166°
2026-04-18 11:52 33.76877 -86.76688 2424 ft 186 kts 166°
2026-04-18 11:52 33.75686 -86.76221 2425 ft 172 kts 166°
2026-04-18 11:53 33.74575 -86.75787 2444 ft 169 kts 167°
2026-04-18 11:53 33.73444 -86.75349 2465 ft 173 kts 167°
2026-04-18 11:53 33.72281 -86.74894 2463 ft 176 kts 167°
2026-04-18 11:53 33.71088 -86.74702 2449 ft 174 kts 184°
2026-04-18 11:54 33.69871 -86.74712 2448 ft 173 kts 184°
2026-04-18 11:54 33.68658 -86.74712 2459 ft 172 kts 184°
2026-04-18 11:54 33.67458 -86.74715 2454 ft 172 kts 184°
2026-04-18 11:54 33.66268 -86.74714 2459 ft 172 kts 184°
2026-04-18 11:55 33.65071 -86.74715 2454 ft 171 kts 184°
2026-04-18 11:55 33.63873 -86.74715 2469 ft 171 kts 184°
2026-04-18 11:55 33.62672 -86.74710 2479 ft 170 kts 184°
2026-04-18 11:55 33.61500 -86.74615 2344 ft 164 kts 180°
2026-04-18 11:56 33.60353 -86.74600 1530 ft 172 kts 187°
2026-04-18 11:56 33.59220 -86.74719 1034 ft 157 kts 183°
2026-04-18 11:56 33.58215 -86.74721 829 ft 133 kts 182°
2026-04-18 11:56 33.57363 -86.74728 662 ft 111 kts 180°
2026-04-18 11:57 33.56701 -86.74728 629 ft 66 kts 179°
2026-04-18 11:57 33.56382 -86.74722 622 ft 35 kts 179°
2026-04-18 11:57 33.56179 -86.74724 622 ft 24 kts 180°
2026-04-18 11:57 33.56054 -86.74723 624 ft 13 kts 179°
2026-04-18 11:58 33.55965 -86.74723 624 ft 12 kts 179°
2026-04-18 11:58 33.55881 -86.74722 626 ft 11 kts 179°
2026-04-18 11:58 33.55800 -86.74728 627 ft 12 kts 199°
2026-04-18 11:58 33.55764 -86.74823 625 ft 15 kts 303°
2026-04-18 11:59 33.55882 -86.74851 621 ft 20 kts
2026-04-18 11:59 33.56034 -86.74853 619 ft 21 kts 360°
2026-04-18 11:59 33.56174 -86.74853 619 ft 19 kts
2026-04-18 11:59 33.56305 -86.74852 622 ft 17 kts
2026-04-18 12:00 33.56410 -86.74875 622 ft 10 kts 309°
2026-04-18 12:00 33.56414 -86.74963 621 ft 11 kts 256°
2026-04-18 12:00 33.56392 -86.75011 620 ft 5 kts 230°
2026-04-18 12:00 33.56387 -86.75018 620 ft 0 kts 229°